Hill City, KS

7:27 AM CDT on April 26, 2017 (GMT -0500)
Hill City Municipal

Weather History for KHLC - May, 2012

Change the Weather History Date:

Friday, May 11, 2012

  Actual Average Record
Temperature  
Mean Temperature 58 °F 61 °F  
Max Temperature 70 °F 74 °F 96 °F (1962)
Min Temperature 46 °F 48 °F 28 °F (1979)
Degree Days  
Heating Degree Days 5    
Growing Degree Days 10 (Base 50)    
Moisture  
Dew Point 41 °F    
Average Humidity 49    
Maximum Humidity 74    
Minimum Humidity 36    
Precipitation  
Precipitation 0.00 in 0.12 in 0.53 in (2016)
Month to date precipitation 0.00 1.26  
Year to date precipitation 3.87 5.98  
Sea Level Pressure  
Sea Level Pressure 30.06 in    
Wind  
Wind Speed 10 mph (NNE)    
Max Wind Speed 21 mph    
Max Gust Speed 28 mph    
Visibility 10 miles    
Events      
T = Trace of Precipitation, MM = Missing Value Source: NWS Daily Summary

Daily Weather History Graph

Daily Weather History Graph

Search for Another Location

Airport or City:

Trip Planner

Search our weather history database for the weather conditions in past years. The results will help you decide how hot, cold, wet, or windy it might be!

Date:

Astronomy

May. 11, 2012 Rise Set
Actual Time 6:28 AM CDT 8:43 PM CDT
Civil Twilight 5:58 AM CDT 9:13 PM CDT
Nautical Twilight 5:22 AM CDT 9:50 PM CDT
Astronomical Twilight 4:41 AM CDT 10:30 PM CDT
Moon 1:23 AM CDT (5/11) 12:03 PM CDT (5/11)
Length of Visible Light 15h 14m
Length of Day
14h 14m
Waning Gibbous, 63% of the Moon is Illuminated
May 11
Waning Gibbous
May 12
Last Quarter
May 20
New
May 28
First Quarter
Jun 4
Full

Hourly Weather History & Observations

Time (CDT) Temp. Dew Point Humidity Pressure Visibility Wind Dir Wind Speed Gust Speed Precip Events Conditions
12:53 AM 66.0 °F 41.0 °F 40% 29.78 in 10.0 mi SSW 9.2 mph - N/A   Clear
1:53 AM 63.0 °F 41.0 °F 45% 29.80 in 10.0 mi SW 8.1 mph - N/A   Clear
2:53 AM 61.0 °F 41.0 °F 48% 29.82 in 10.0 mi Calm Calm - N/A   Clear
3:53 AM 59.0 °F 41.0 °F 51% 29.85 in 10.0 mi WSW 6.9 mph - N/A   Clear
4:53 AM 55.0 °F 42.1 °F 62% 29.92 in 10.0 mi North 3.5 mph - N/A   Clear
5:53 AM 50.0 °F 42.1 °F 74% 29.94 in 10.0 mi Calm Calm - N/A   Clear
6:53 AM 54.0 °F 43.0 °F 66% 29.97 in 10.0 mi NNE 13.8 mph - N/A   Scattered Clouds
7:53 AM 57.0 °F 44.1 °F 62% 30.02 in 10.0 mi NE 19.6 mph 25.3 mph N/A   Clear
8:53 AM 57.0 °F 42.1 °F 57% 30.05 in 10.0 mi NE 20.7 mph 27.6 mph N/A   Clear
9:53 AM 57.9 °F 42.1 °F 56% 30.08 in 10.0 mi NNE 13.8 mph 27.6 mph N/A   Clear
10:53 AM 57.9 °F 42.1 °F 56% 30.12 in 10.0 mi NE 18.4 mph 23.0 mph N/A   Clear
11:53 AM 62.1 °F 39.9 °F 44% 30.12 in 10.0 mi NNE 16.1 mph 23.0 mph N/A   Clear
12:53 PM 66.0 °F 41.0 °F 40% 30.12 in 10.0 mi North 12.7 mph - N/A   Clear
1:53 PM 66.0 °F 42.1 °F 42% 30.13 in 10.0 mi NNE 13.8 mph 21.9 mph N/A   Partly Cloudy
2:53 PM 66.9 °F 42.1 °F 40% 30.14 in 10.0 mi NE 9.2 mph - N/A   Scattered Clouds
3:53 PM 69.1 °F 42.1 °F 38% 30.13 in 10.0 mi ENE 11.5 mph 19.6 mph N/A   Mostly Cloudy
4:53 PM 68.0 °F 42.1 °F 39% 30.13 in 10.0 mi East 10.4 mph - N/A   Scattered Clouds
5:53 PM 70.0 °F 42.1 °F 36% 30.14 in 10.0 mi ENE 15.0 mph 19.6 mph N/A   Mostly Cloudy
6:53 PM 69.1 °F 42.1 °F 38% 30.13 in 10.0 mi NE 13.8 mph 21.9 mph N/A   Clear
8:53 PM 60.1 °F 37.9 °F 44% 30.19 in 10.0 mi NNE 16.1 mph - N/A   Mostly Cloudy
9:53 PM 55.9 °F 35.1 °F 45% 30.23 in 10.0 mi NNE 15.0 mph 24.2 mph N/A   Partly Cloudy
10:53 PM 53.1 °F 34.0 °F 48% 30.27 in 10.0 mi NNE 11.5 mph - N/A   Clear
11:53 PM 48.9 °F 35.1 °F 59% 30.29 in 10.0 mi NNE 11.5 mph - N/A   Clear